[[{"header":{"parameterUnit":"m.s-1","parameterCategory":1,"la1":30.2992,"la2":30.254,"lo1":-89.0895,"lo2":-89.0443,"dy":0.0025,"dx":0.0025,"nx":19,"ny":19,"refTime":"2026-04-26T21:00:00:Z","depth":0,"parameterNumber":2,"parameterNumberName":"U-component_of_WINDS"},"data":[0,0,0,-2.6332,-2.6333,-2.6382,-2.6382,-2.6445,-2.6446,0,0,0,0,0,0,0,0,0,0,0,-2.6317,-2.6317,-2.6332,-2.6333,-2.6382,-2.6382,-2.6445,-2.6446,0,0,0,0,0,0,0,0,0,0,0,-2.6317,-2.6317,-2.6318,-2.6333,-2.6382,-2.6382,-2.6445,-2.6408,0,0,0,0,0,0,0,0,0,0,-2.636,-2.6346,-2.6317,-2.6318,-2.6333,-2.6382,-2.6382,-2.6406,-2.641,-2.6423,0,-2.6434,0,-2.6441,-2.645,-2.645,0,0,0,-2.6333,-2.6343,-2.6356,-2.6318,-2.6334,-2.6382,-2.636,-2.6408,-2.6413,-2.6428,-2.6435,-2.6437,-2.6442,-2.645,-2.6451,-2.6524,-2.6525,0,0,-2.633,-2.6325,-2.6353,-2.6359,-2.6352,-2.6358,-2.6361,-2.6411,-2.6418,-2.6435,-2.6439,-2.6443,-2.6451,-2.6451,-2.6524,-2.6525,0,0,0,-2.6322,-2.6324,-2.6336,-2.6357,-2.6366,-2.636,-2.6363,-2.6416,-2.642,-2.644,-2.6444,-2.6451,-2.6452,-2.6524,-2.6524,-2.6536,0,0,0,-2.6321,-2.6319,-2.6335,-2.6332,-2.6365,-2.6391,-2.6367,-2.6417,-2.6423,-2.6444,-2.6451,-2.6453,-2.6523,-2.6524,-2.6534,-2.6541,0,0,0,-2.6314,-2.6318,-2.6325,-2.6332,-2.6353,-2.6391,-2.6398,-2.6418,-2.6425,-2.645,-2.6453,-2.6523,-2.6524,-2.6533,-2.6539,-2.6558,0,0,0,-2.6305,-2.6335,-2.6325,-2.6361,-2.6353,-2.6398,-2.6398,-2.6432,-2.6455,-2.6452,-2.6523,-2.6524,-2.6533,-2.6538,-2.6557,-2.6572,-2.6578,0,0,-2.634,-2.6339,-2.636,-2.6353,-2.6399,-2.6391,-2.6438,-2.6464,-2.647,-2.6506,-2.6508,-2.6535,-2.6539,-2.6558,-2.6618,-2.6622,0,0,0,-2.6369,-2.6384,-2.6398,-2.6419,-2.644,-2.6459,-2.6478,-2.6487,-2.6518,-2.6488,-2.6548,-2.6551,-2.6562,-2.6569,-2.6573,-2.6582,-2.6528,-2.6528,-2.6528,-2.641,-2.6418,-2.6454,-2.6468,-2.649,-2.651,-2.6528,-2.6544,-2.6546,-2.656,-2.657,-2.6605,-2.6613,-2.6616,-2.6626,-2.658,-2.658,-2.658,-2.658,-2.646,-2.6482,-2.6485,-2.652,-2.6529,-2.6559,-2.6581,-2.6581,-2.661,-2.6598,-2.6608,-2.6593,-2.6621,-2.663,-2.6581,-2.6581,-2.6581,-2.6581,-2.6581,-2.6485,-2.6497,-2.651,-2.6543,-2.6568,-2.6583,-2.6611,-2.6618,-2.6625,-2.6636,-2.6646,-2.6646,-2.6645,-2.6641,-2.6641,-2.6641,-2.6641,-2.6641,-2.6641,-2.6506,-2.652,-2.6542,-2.6569,-2.6584,-2.6606,-2.6629,-2.6644,-2.6663,-2.6666,-2.6667,-2.6666,-2.6624,-2.6611,-2.6643,-2.6643,-2.6643,-2.6643,-2.6642,-2.655,-2.6541,-2.6576,-2.6592,-2.6624,-2.6648,-2.6659,-2.6691,-2.6705,-2.6719,-2.6717,-2.6686,-2.6684,-2.6681,-2.6671,-2.6716,-2.6716,-2.6716,-2.6716,-2.6569,-2.6571,-2.6608,-2.6633,-2.6659,-2.6672,-2.6711,-2.673,-2.6748,-2.6758,-2.6753,-2.6741,-2.6738,-2.6739,-2.6734,-2.6725,-2.6783,-2.6783,-2.6783,-2.6596,-2.6601,-2.6632,-2.665,-2.6676,-2.6699,-2.6736,-2.6764,-2.6783,-2.6786,-2.6765,-2.6762,-2.6743,-2.6737,-2.6735,-2.6728,-2.6711,0,0]},{"header":{"parameterUnit":"m.s-1","parameterCategory":1,"la1":30.2992,"la2":30.254,"lo1":-89.0895,"lo2":-89.0443,"dy":0.0025,"dx":0.0025,"nx":19,"ny":19,"refTime":"2026-04-26T21:00:00:Z","depth":0,"parameterNumber":3,"parameterNumberName":"V-component_of_WINDS"},"data":[0,0,0,3.5937,3.5938,3.5967,3.5967,3.6004,3.6004,0,0,0,0,0,0,0,0,0,0,0,3.5929,3.5929,3.5937,3.5938,3.5967,3.5967,3.6004,3.6004,0,0,0,0,0,0,0,0,0,0,0,3.5928,3.5929,3.5929,3.5938,3.5967,3.5967,3.6004,3.5982,0,0,0,0,0,0,0,0,0,0,3.5954,3.5945,3.5929,3.5929,3.5938,3.5967,3.5967,3.5981,3.5983,3.599,0,3.5997,0,3.6001,3.6006,3.6007,0,0,0,3.5938,3.5943,3.5951,3.5929,3.5939,3.5967,3.5954,3.5982,3.5985,3.5993,3.5997,3.5999,3.6002,3.6007,3.6007,3.6051,3.6052,0,0,3.5936,3.5933,3.595,3.5953,3.5949,3.5953,3.5955,3.5984,3.5988,3.5998,3.6,3.6002,3.6007,3.6007,3.6051,3.6051,0,0,0,3.5932,3.5932,3.594,3.5952,3.5957,3.5954,3.5956,3.5986,3.5989,3.6,3.6003,3.6007,3.6008,3.6051,3.6051,3.606,0,0,0,3.5931,3.593,3.5939,3.5938,3.5957,3.5972,3.5958,3.5987,3.599,3.6003,3.6007,3.6008,3.6051,3.6051,3.606,3.6065,0,0,0,3.5927,3.5929,3.5933,3.5937,3.595,3.5972,3.5976,3.5988,3.5992,3.6007,3.6008,3.6051,3.6051,3.6059,3.6064,3.6077,0,0,0,3.5921,3.5939,3.5933,3.5955,3.595,3.5977,3.5976,3.5996,3.601,3.6007,3.6051,3.6051,3.6059,3.6063,3.6076,3.6088,3.6093,0,0,3.5942,3.5942,3.5955,3.595,3.5979,3.5973,3.6003,3.6017,3.602,3.6041,3.6042,3.606,3.6064,3.6077,3.6118,3.6122,0,0,0,3.596,3.597,3.5978,3.5992,3.6004,3.6016,3.6026,3.6032,3.605,3.603,3.6068,3.607,3.6078,3.6084,3.6087,3.6095,3.6054,3.6054,3.6054,3.5985,3.5991,3.6013,3.6023,3.6036,3.6048,3.6059,3.6069,3.6068,3.6077,3.6084,3.6108,3.6115,3.6117,3.6125,3.609,3.609,3.609,3.609,3.6018,3.6032,3.6034,3.6057,3.6063,3.6081,3.6094,3.6094,3.6112,3.6103,3.611,3.6101,3.6121,3.6128,3.609,3.609,3.609,3.609,3.609,3.6035,3.6043,3.6051,3.6074,3.609,3.6098,3.6117,3.6121,3.6124,3.6131,3.6139,3.6139,3.614,3.6135,3.6135,3.6135,3.6135,3.6135,3.6135,3.605,3.6059,3.6075,3.6092,3.6103,3.6117,3.6131,3.6141,3.6153,3.6155,3.6155,3.6154,3.6122,3.6114,3.6137,3.6136,3.6136,3.6136,3.6136,3.6081,3.6075,3.61,3.6111,3.6133,3.615,3.6155,3.6177,3.6185,3.6195,3.6194,3.6169,3.6168,3.6165,3.6159,3.6192,3.6192,3.6192,3.6192,3.6096,3.6097,3.6124,3.6142,3.616,3.6168,3.6196,3.6208,3.6219,3.6225,3.6221,3.6213,3.621,3.6211,3.6207,3.6201,3.6244,3.6244,3.6244,3.6117,3.612,3.6143,3.6156,3.6174,3.6189,3.6216,3.6236,3.6247,3.6246,3.623,3.6228,3.6215,3.621,3.6209,3.6203,3.6193,0,0]}]]